Regional Weather Roundup
Issued by NWS Cleveland, OH

Home | Current Version | Previous Version | Graphics & Text | Print | Product List | Glossary On
Versions: 1 2 3 4 5 6 7 8 9 10 11 12 13 14 15 16 17 18 19 20 21 22 23 24 25 26 27 28 29 30 31 32 33 34 35 36 37 38 39 40 41 42 43 44 45 46 47 48 49 50
000
ASUS41 KCLE 251800
RWRCLE
OHIO REGIONAL WEATHER ROUNDUP
NATIONAL WEATHER SERVICE WILMINGTON, OH
200 PM EDT SAT OCT 25 2014

NOTE: "FAIR" INDICATES FEW OR NO CLOUDS BELOW 12,000 FEET WITH NO
SIGNIFICANT WEATHER AND/OR OBSTRUCTIONS TO VISIBILITY.

OHZ001>008-015>018-024>027-034-035-043-044-251900-
   NORTHWEST OHIO

CITY           SKY/WX    TMP DP  RH WIND       PRES   REMARKS
DEFIANCE       SUNNY     68  54  60 NW17G23   29.86F
FINDLAY        SUNNY     71  53  52 W20       29.84F HAZE
TOLEDO EXPRESS SUNNY     66  52  60 W17G29    29.83F
TOLEDO METCALF SUNNY     66  53  63 W17G25    29.83F
LIMA           SUNNY     71  54  54 W21       29.86F
$$

OHZ009>014-019>023-028>033-038-089-251900-
   NORTHEAST OHIO

CITY           SKY/WX    TMP DP  RH WIND       PRES   REMARKS
CLE-HOPKINS    MOSUNNY   67  53  61 W17G26    29.81F
CLE-LAKEFRONT  MOSUNNY   63  55  75 W12       29.78F
CUY CO. ARPT   PTSUNNY   68  55  64 W17G25    29.78F
LORAIN-ELYRIA  SUNNY     69  53  56 W18G25    29.79F
ASHTABULA      CLOUDY    65  51  60 W21G26    29.77F
AKRON-CANTON   PTSUNNY   67  52  58 SW17      29.80F
WOOSTER        NOT AVBL
MANSFIELD      MOSUNNY   68  54  60 W16G25    29.83F
YOUNGSTOWN     PTSUNNY   65  49  56 SW15G26   29.78F
$$

OHZ042-051>053-060>062-070>072-077>081-251900-
  SOUTHWEST OHIO

CITY           SKY/WX    TMP DP  RH WIND       PRES   REMARKS
CINC-COVINGTON MOSUNNY   69  57  65 SW8       29.95F
CINC-LUNKEN    MOSUNNY   68  57  68 SW12      29.94F
HAMILTON       SUNNY     72  58  61 SW9       29.93F
DAYTON         NOT AVBL
WRIGHT-PAT AFB SUNNY     69  56  64 SW12      29.90F
DAYTON GENERAL SUNNY     66  56  70 SW15      29.91F HAZE
WILMINGTON     CLOUDY    66  55  67 W13       29.92F
$$

OHZ036-037-039>041-045>050-054>059-063>069-073>076-082>088-251900-
  CENTRAL AND SOUTHEAST OHIO

CITY           SKY/WX    TMP DP  RH WIND       PRES   REMARKS
COLUMBUS       PTSUNNY   68  53  58 SW12      29.88F
OSU AIRPORT    MOSUNNY   70  55  59 SW16      29.87F
BOLTON FIELD   SUNNY     68  55  64 SW13G18   29.89F
RICKENBACK AFB NOT AVBL
NEWARK         MOSUNNY   69  52  54 SW15G21   29.87F
MARION         SUNNY     69  53  56 W16G22    29.85F HAZE
LANCASTER      CLOUDY    66  53  63 SW12G18   29.89F
ZANESVILLE     CLOUDY    66  51  58 SW13      29.87F
NEW PHILLY     PTSUNNY   68  52  56 VRB7      29.84F
$$



USA.gov is the U.S. government's official web portal to all federal, state and local government web resources and services.